AAUSAT 4 (41460 NORAD) Tracking and Keplerian Element Data

This shows tracking and keplerian element data for the satellite.

Feedback or suggestion? Click here.




ElementValue
Catalog41460
NameAAUSAT 4
Epoch Orbit24706
Epoch Day298.24417578
Epoch Year2020
RAAN57.8656
Inclination98.1153
Eccentricity0.0153162
Argument of Perigee125.3229
Mean Anonmoly236.2434
Mean Motion15.09322991
Decay Rate4.043E-05
L11 41460U 16025E 20298.24417578 .00004043 00000-0 19619-3 0 9998
L22 41460 98.1153 57.8656 0153162 125.3229 236.2434 15.09322991247067

Live tracking and technical data element details for AAUSAT 4 (NORAD 41460). AAUSAT 4 can be tracked NOW for your location showing map with azimuth and elevation plus other details from your city location.

Track the satellite on the map from your city or location and see movement details for azimuth, elevation, latitude, longitude, range, height, and movement on the map or in text.







IsCatalogInMostPopularTable: catalog: 41460, numindb: 296
Update: records affected: 1



GetName: 41460 AAUSAT 4

Hit Count: updated at: Sun, 25 Oct 2020 08:18:58 GMT